• în România
  • Lista ţărilor
  • Pe 7 zile
  • Temperatura apei
  • Hartă satelitară
  • Meteo pe hartă
  • Widget-uri
  • user-avatar
    Intrare

    Meteo pe oră la Larne

    Astăzi, 20 Aprilie, Vineri

    Timp Temperatura Precipitaţii Vânt Presiune Umiditate
    00:00 +9°C° 0 mm 2 m/s 764 mmHg 90%
    01:00 +9°C° 0 mm 2 m/s 764 mmHg 88%
    02:00 +8°C° 0 mm 2 m/s 764 mmHg 87%
    03:00 +8°C° 0 mm 2 m/s 764 mmHg 85%
    04:00 +7°C° 0 mm 3 m/s 764 mmHg 86%
    05:00 +7°C° 0 mm 3 m/s 764 mmHg 88%
    06:00 +7°C° 0 mm 3 m/s 764 mmHg 89%
    07:00 +8°C° 0 mm 3 m/s 764 mmHg 86%
    08:00 +10°C° 0 mm 4 m/s 764 mmHg 82%
    09:00 +11°C° 0 mm 4 m/s 764 mmHg 79%
    10:00 +12°C° 0 mm 4 m/s 764 mmHg 75%
    11:00 +13°C° 0 mm 4 m/s 764 mmHg 71%
    12:00 +14°C° 0 mm 3 m/s 765 mmHg 68%
    13:00 +14°C° 0 mm 3 m/s 764 mmHg 68%
    14:00 +14°C° 0 mm 3 m/s 764 mmHg 69%
    15:00 +14°C° 0 mm 3 m/s 764 mmHg 70%
    16:00 +13°C° 0,1 mm 3 m/s 764 mmHg 74%
    17:00 +14°C° 0,1 mm 2 m/s 764 mmHg 78%
    18:00 +13°C° 0,1 mm 2 m/s 764 mmHg 81%
    19:00 +12°C° 0 mm 2 m/s 764 mmHg 83%
    20:00 +10°C° 0 mm 2 m/s 764 mmHg 85%
    21:00 +10°C° 0 mm 1 m/s 765 mmHg 86%
    22:00 +10°C° 0 mm 1 m/s 765 mmHg 87%
    23:00 +10°C° 0 mm 1 m/s 764 mmHg 88%

    Mâine, 21 Aprilie, Sâmbătă

    Timp Temperatura Precipitaţii Vânt Presiune Umiditate
    00:00 +9°C° 0 mm 1 m/s 764 mmHg 89%
    01:00 +8°C° 0 mm 2 m/s 764 mmHg 91%
    02:00 +7°C° 0 mm 2 m/s 764 mmHg 92%
    03:00 +7°C° 0 mm 2 m/s 763 mmHg 94%
    04:00 +6°C° 0 mm 2 m/s 763 mmHg 93%
    05:00 +6°C° 0 mm 2 m/s 763 mmHg 93%
    06:00 +6°C° 0 mm 2 m/s 763 mmHg 92%
    07:00 +8°C° 0 mm 3 m/s 762 mmHg 88%
    08:00 +10°C° 0 mm 4 m/s 762 mmHg 83%
    09:00 +12°C° 0 mm 4 m/s 761 mmHg 79%
    10:00 +13°C° 0 mm 5 m/s 761 mmHg 75%
    11:00 +14°C° 0 mm 5 m/s 760 mmHg 72%
    12:00 +15°C° 0 mm 6 m/s 760 mmHg 68%
    13:00 +15°C° 0 mm 6 m/s 759 mmHg 67%
    14:00 +15°C° 0 mm 6 m/s 759 mmHg 66%
    15:00 +15°C° 0 mm 6 m/s 758 mmHg 65%
    16:00 +14°C° 0 mm 5 m/s 757 mmHg 68%
    17:00 +14°C° 0 mm 4 m/s 757 mmHg 72%
    18:00 +13°C° 0 mm 4 m/s 756 mmHg 76%
    19:00 +12°C° 0 mm 4 m/s 756 mmHg 78%
    20:00 +10°C° 0 mm 3 m/s 755 mmHg 81%
    21:00 +9°C° 0 mm 3 m/s 755 mmHg 84%
    22:00 +9°C° 0 mm 3 m/s 755 mmHg 85%
    23:00 +9°C° 0 mm 3 m/s 754 mmHg 87%

    Poimâine, 22 Aprilie, Duminică

    Timp Temperatura Precipitaţii Vânt Presiune Umiditate
    00:00 +9°C° 0 mm 3 m/s 754 mmHg 88%
    01:00 +8°C° 0,1 mm 3 m/s 754 mmHg 91%
    02:00 +8°C° 0,1 mm 3 m/s 753 mmHg 93%
    03:00 +8°C° 0,1 mm 2 m/s 753 mmHg 95%
    04:00 +8°C° 0,1 mm 3 m/s 753 mmHg 95%
    05:00 +7°C° 0,1 mm 3 m/s 753 mmHg 96%
    06:00 +7°C° 0,1 mm 3 m/s 753 mmHg 96%
    07:00 +7°C° 0 mm 4 m/s 753 mmHg 92%
    08:00 +8°C° 0 mm 4 m/s 753 mmHg 88%
    09:00 +9°C° 0 mm 5 m/s 753 mmHg 84%
    10:00 +10°C° 0 mm 5 m/s 753 mmHg 80%
    11:00 +10°C° 0 mm 5 m/s 753 mmHg 75%
    12:00 +12°C° 0 mm 5 m/s 753 mmHg 71%
    13:00 +12°C° 0,1 mm 5 m/s 753 mmHg 72%
    14:00 +12°C° 0,1 mm 5 m/s 753 mmHg 73%
    15:00 +12°C° 0,1 mm 5 m/s 752 mmHg 74%
    16:00 +10°C° 0,2 mm 5 m/s 752 mmHg 77%
    17:00 +10°C° 0,2 mm 5 m/s 752 mmHg 79%
    18:00 +9°C° 0,2 mm 5 m/s 752 mmHg 82%
    19:00 +8°C° 0,1 mm 5 m/s 753 mmHg 84%
    20:00 +7°C° 0,1 mm 5 m/s 753 mmHg 85%
    21:00 +6°C° 0,1 mm 5 m/s 753 mmHg 86%
    22:00 +7°C° 0 mm 6 m/s 753 mmHg 87%
    23:00 +7°C° 0 mm 6 m/s 753 mmHg 87%

    23 Aprilie, Luni

    Timp Temperatura Precipitaţii Vânt Presiune Umiditate
    00:00 +7°C° 0 mm 6 m/s 754 mmHg 88%
    01:00 +5°C° 0 mm 6 m/s 754 mmHg 89%
    02:00 +5°C° 0 mm 6 m/s 754 mmHg 90%
    03:00 +5°C° 0 mm 6 m/s 754 mmHg 91%
    04:00 +5°C° 0 mm 6 m/s 754 mmHg 90%
    05:00 +5°C° 0 mm 6 m/s 754 mmHg 89%
    06:00 +5°C° 0 mm 6 m/s 755 mmHg 88%
    07:00 +7°C° 0 mm 6 m/s 755 mmHg 86%
    08:00 +8°C° 0 mm 6 m/s 755 mmHg 83%
    09:00 +9°C° 0 mm 6 m/s 756 mmHg 81%
    10:00 +9°C° 0 mm 5 m/s 756 mmHg 81%
    11:00 +9°C° 0 mm 5 m/s 756 mmHg 81%
    12:00 +10°C° 0 mm 5 m/s 756 mmHg 81%
    13:00 +10°C° 0,3 mm 5 m/s 755 mmHg 85%
    14:00 +10°C° 0,3 mm 5 m/s 755 mmHg 88%
    15:00 +9°C° 0,3 mm 5 m/s 754 mmHg 92%
    16:00 +10°C° 0,8 mm 5 m/s 754 mmHg 93%
    17:00 +10°C° 0,8 mm 5 m/s 753 mmHg 94%
    18:00 +10°C° 0,8 mm 5 m/s 752 mmHg 95%
    19:00 +10°C° 0 mm 5 m/s 752 mmHg 96%
    20:00 +9°C° 0 mm 5 m/s 752 mmHg 96%
    21:00 +9°C° 0 mm 5 m/s 752 mmHg 96%
    22:00 +9°C° 0 mm 5 m/s 752 mmHg 96%
    23:00 +9°C° 0 mm 5 m/s 752 mmHg 95%

    24 Aprilie, Marţi

    Timp Temperatura Precipitaţii Vânt Presiune Umiditate
    00:00 +9°C° 0 mm 6 m/s 752 mmHg 95%
    01:00 +9°C° 0,1 mm 6 m/s 753 mmHg 94%
    02:00 +9°C° 0,1 mm 6 m/s 753 mmHg 94%
    03:00 +8°C° 0,1 mm 6 m/s 753 mmHg 94%
    04:00 +8°C° 0,1 mm 5 m/s 753 mmHg 94%
    05:00 +7°C° 0,1 mm 5 m/s 753 mmHg 93%
    06:00 +7°C° 0,1 mm 5 m/s 754 mmHg 93%
    07:00 +7°C° 0 mm 5 m/s 754 mmHg 89%
    08:00 +8°C° 0 mm 5 m/s 754 mmHg 84%
    09:00 +8°C° 0 mm 6 m/s 755 mmHg 79%
    10:00 +9°C° 0,1 mm 5 m/s 755 mmHg 75%
    11:00 +10°C° 0,1 mm 5 m/s 755 mmHg 70%
    12:00 +10°C° 0,1 mm 5 m/s 755 mmHg 66%
    13:00 +10°C° 0,2 mm 5 m/s 755 mmHg 68%
    14:00 +11°C° 0,2 mm 4 m/s 755 mmHg 70%
    15:00 +11°C° 0,2 mm 4 m/s 755 mmHg 72%
    16:00 +11°C° 0,2 mm 4 m/s 754 mmHg 74%
    17:00 +10°C° 0,2 mm 3 m/s 754 mmHg 76%
    18:00 +10°C° 0,2 mm 3 m/s 754 mmHg 78%
    19:00 +9°C° 0 mm 3 m/s 754 mmHg 81%
    20:00 +8°C° 0 mm 3 m/s 754 mmHg 84%
    21:00 +7°C° 0 mm 3 m/s 754 mmHg 87%
    22:00 +7°C° 0,1 mm 3 m/s 754 mmHg 90%
    23:00 +5°C° 0,1 mm 4 m/s 754 mmHg 92%

    25 Aprilie, Miercuri

    Timp Temperatura Precipitaţii Vânt Presiune Umiditate
    00:00 +5°C° 0,1 mm 5 m/s 754 mmHg 95%
    01:00 +5°C° 0 mm 5 m/s 754 mmHg 94%
    02:00 +5°C° 0 mm 5 m/s 753 mmHg 94%
    03:00 +3°C° 0 mm 5 m/s 753 mmHg 94%
    04:00 +4°C° 0 mm 6 m/s 753 mmHg 94%
    05:00 +4°C° 0 mm 6 m/s 753 mmHg 93%
    06:00 +4°C° 0 mm 6 m/s 753 mmHg 93%
    07:00 +5°C° 0,1 mm 7 m/s 753 mmHg 88%
    08:00 +6°C° 0,1 mm 7 m/s 753 mmHg 83%
    09:00 +8°C° 0,1 mm 7 m/s 753 mmHg 77%
    10:00 +8°C° 0,2 mm 7 m/s 754 mmHg 75%
    11:00 +9°C° 0,2 mm 7 m/s 754 mmHg 72%
    12:00 +9°C° 0,2 mm 8 m/s 754 mmHg 70%
    13:00 +9°C° 0,3 mm 8 m/s 754 mmHg 70%
    14:00 +9°C° 0,3 mm 8 m/s 754 mmHg 70%
    15:00 +9°C° 0,3 mm 8 m/s 755 mmHg 70%
    16:00 +9°C° 0,2 mm 7 m/s 755 mmHg 72%
    17:00 +8°C° 0,2 mm 7 m/s 755 mmHg 74%
    18:00 +8°C° 0,2 mm 7 m/s 755 mmHg 75%
    19:00 +6°C° 0,1 mm 7 m/s 755 mmHg 77%
    20:00 +5°C° 0,1 mm 7 m/s 755 mmHg 79%
    21:00 +4°C° 0,1 mm 7 m/s 756 mmHg 81%
    22:00 +4°C° 0 mm 7 m/s 756 mmHg 81%
    23:00 +2°C° 0 mm 8 m/s 756 mmHg 81%
    Arată mai mult